Location: Bednik
(45.3500°N, 16.3833°E)
Time: 05:19:30
(UTC+00:00)

Cosmos 921 Rocket - Pass Details

Date: 08 August 2020
Orbit: 572 x 631 km, 75.8° (Epoch: 23 September)

Event Time Altitude Azimuth Distance (km) Brightness Sun altitude
Rises 19:50:25 0° 349° (N) 2,820 7.4 -15.3°
Reaches altitude 10° 19:52:51 10° 360° (N) 1,907 6.2 -15.6°
Maximum altitude 19:56:39 32° 64° (ENE) 1,010 4.0 -16.1°
Enters shadow 19:58:01 26° 99° (E) 1,160 4.0 -16.3°
